1st Responders/1st Detectors/Storm Spotters Weather Summary for Harrison County, KY

Forecast Maps


Reg. NEXRAD Animation


National Fire Danger: Day 1 & 2 Map

Current NWS Watch/Warnings

SPC Convective Day 1 Outlook


Day 2 Outlook

(Click images to enlarge|Page will refresh every 5 minutes)
UK Ag. Weather Center Desktop Severe Weather Service[HERE]
Harrison County, KY Hazardous Weather Outlook Webcast
(9 AM to 9 PM Mon-Fri)
[Fast]
[Dial-up]


UKAWC 1st Detectors/1st Responders Precision Weather Forecast For HARRISON County, Kentucky
(based on the NWS County Digital Forecast)

ISSUED AT 01:00 UTC ON MONDAY NOV 30 2020
DAY SUNDAY MONDAY
EDT 3HR 10P 11P MIDN 1A 2A 3A 4A 5A 6A 7A 8A 9A 10A 11A NOON 1P 2P 3P 4P 5P 6P 7P
MAX/MIN -- -- -- -- -- -- -- -- -- -- 36° -- -- -- -- -- -- -- -- -- -- 36°
TEMP 45° 45° 45° 43° 43° 43° 41° 40° 40° 38° 36° 36° 36° 36° 36° 36° 36° 36° 36° 36° 34° 34°
SKY COVER 100% 100% 100% 100% 100% 100% 100% 100% 100% 100% 100% 100% 100% 100% 100% 100% 100% 100% 100% 100% 100% 100%
Clouds
DEW PT 43° 43° 43° 43° 41° 40° 40° 38° 38° 36° 36° 36° 34° 34° 34° 34° 34° 34° 34° 32° 31° 31°
RH 89% 92% 93% 96% 92% 92% 92% 92% 92% 95% 95% 96% 92% 92% 92% 92% 92% 91% 88% 89% 88% 88%
POP 12HR -- -- -- -- -- -- -- -- -- -- 100% -- -- -- -- -- -- -- -- -- -- --
RAIN/SNOW (liq.equ) -- -- -- -- 0.02in -- -- -- -- -- 0.31in -- -- -- -- -- 0.17in -- -- -- -- --
SNOWFALL -- -- -- -- 0in -- -- -- -- -- 0in -- -- -- -- -- 0in -- -- -- -- --
WIND SPEED(MPH) 2 2 2 6 7 8 9 10 10 10 10 13 14 14 14 15 15 14 14 13 10 10
WIND Gust(MPH) 5 5 6 9 15 16 17 21 18 21 18 22 22 23 23 23 23 23 22 22 22 21
WIND DIR S W NW NW NW NW NW N N NW NW NW NW NW NW NW NW NW NW NW NW NW
DEW -- -- -- -- -- -- -- -- -- -- -- -- -- -- -- -- -- -- -- -- -- --
HeatIndex 45 43 43 40 39 37 36 34 32 30 29 28 28 28 28 27 27 28 28 27 26 25
Snow Showers -- -- -- -- -- -- -- Definite Definite Definite Definite Definite Definite Definite Definite Definite Likely Likely Likely Likely Likely Likely
Rain Showers Chance Chance Likely Definite Definite Definite Definite Definite Definite Definite Definite Definite Likely Chance Chance Slight Chance -- -- -- -- -- --
WIND CHILL -- -- -- 39° 39° 38° 35° 34° 34° 31° 29° 28° 27° 27° 27° 27° 27° 27° 27° 28° 26° 26°
SPRAY COND
DRY COND
LIVESTOCK COLDSTRESS



DAY MONDAY TUESDAY WEDNESDAY THURSDAY FRIDAY SATURDAY SUNDAY
EDT 6HR 8P 9P 10P 11P MIDN 1A 2A 3A 4A 5A 6A 7A 8A 9A 11A 2P 5P 8P 11P 2A 5A 8A 11A 2P 5P 8P 2A 8A 2P 8P 2A 8A 2P 8P 2A 8A 2P 8P 2A 8A 2P 8P
MAX/MIN -- -- -- -- -- -- -- -- -- -- -- -- 25° -- -- -- 34° -- -- -- -- 20° -- -- 43° -- -- 25° 45° -- -- 34° 43° -- -- 29° 40° -- -- 29° 43° --
TEMP 32° 31° 31° 31° 29° 29° 29° 29° 29° 27° 27° 27° 27° 27° 29° 32° 34° 29° 27° 25° 23° 22° 31° 40° 40° 34° 27° 27° 41° 38° 36° 34° 41° 38° 32° 31° 38° 34° 31° 29° 40° 36°
SKY COVER 100% 99% 98% 98% 97% 97% 96% 95% 93% 92% 91% 89% 81% 76% 67% 63% 32% 14% 6% 2% 1% 2% 2% 9% 3% 7% 39% 81% 81% 83% 86% 84% 77% 66% 59% 68% 46% 41% 37% 60% 37% 42%
Clouds
DEW PT 29° 29° 29° 27° 27° 27° 25° 25° 25° 23° 23° 22° 22° 22° 23° 22° 22° 20° 20° 18° 18° 18° 22° 23° 25° 23° 23° 25° 31° 31° 32° 32° 36° 34° 29° 29° 31° 29° 27° 27° 31° 29°
RH 88% 91% 88% 88% 88% 88% 84% 84% 84% 84% 85% 84% 84% 81% 77% 66% 60% 71% 74% 77% 80% 83% 68% 52% 52% 66% 84% 91% 64% 75% 88% 91% 79% 85% 88% 92% 73% 78% 88% 92% 69% 75%
POP 12HR 100% -- -- -- -- -- -- -- -- -- -- -- 72% -- -- -- -- 5% -- -- -- 0% -- -- -- 0% -- 4% -- 18% -- 21% -- 25% -- 26% -- 25% -- 18% -- 8%
RAIN/SNOW (liq.equ) 0.07in -- -- -- -- -- 0.06in -- -- -- -- -- 0.03in -- -- 0.00in -- 0.00in -- 0.00in -- 0.00in -- 0.00in -- 0.00in -- -- -- -- -- -- -- -- -- -- -- -- -- -- -- --
SNOWFALL 0in -- -- -- -- -- 0in -- -- -- -- -- 0in -- -- 0in -- 0in -- 0in -- 0in -- 0in -- 0in -- -- -- -- -- -- -- -- -- -- -- -- -- -- -- --
WIND SPEED(MPH) 10 13 13 13 13 10 10 13 13 13 10 10 9 10 14 14 14 7 7 6 6 6 7 8 7 2 2 5 6 2 1 2 6 5 6 6 9 7 6 7 14 8
WIND DIR NW NW NW W W W W W W W W W W W W W W W W W W SW SW SW SW SW S S S S S S SW W W W W W W W W W
HeatIndex 24 22 22 21 20 20 20 18 18 17 18 16 17 18 19 23 24 22 19 18 16 15 23 34 36 31 24 22 38 36 36 32 38 35 27 25 32 29 25 22 32 30
Snow Showers Likely Likely Likely Likely Likely Likely Likely Chance Chance Chance Slight Chance -- -- -- -- -- -- -- -- -- -- -- -- -- -- -- -- -- -- -- Slight Chance Slight Chance -- -- Chance Slight Chance -- Slight Chance -- -- -- --
Rain Showers -- -- -- -- -- -- -- -- -- -- -- -- -- -- -- -- -- -- -- -- -- -- -- -- -- -- -- -- Slight Chance Slight Chance Slight Chance Slight Chance Chance Chance -- -- Chance Slight Chance -- -- -- --
WIND CHILL 24° 21° 21° 21° 19° 20° 20° 19° 19° 16° 18° 18° 18° 18° 19° 22° 25° 22° 20° 18° 16° 15° 25° 35° 35° -- -- 22° 37° -- -- -- 37° 35° 27° 25° 32° 28° 25° 22° 32° 30°
SPRAY COND
DRY COND
LIVESTOCK COLDSTRESS

Click on individual weather variable above in left-hand column (ie., TEMP, RH, QPF 12HR) to view state forecast maps






NWS 48 Hr. Forecast Maps,

Regional Hourly Observations For HARRISON County, Kentucky
Issued at 800 PM EST SUN NOV 29 2020
NORTHEAST KENTUCKY
  
CITY           SKY/WX    TMP DP  RH WIND       PRES   REMARKS
LEXINGTON      CLOUDY    50  41  71 CALM      29.88F                  
COVINGTON      CLOUDY    47  36  65 CALM      29.89F                  
FRANKFORT      CLOUDY    50  43  77 NW3       29.88F                  


Current NOWCAST not available:
Nowcasts are not issued routinely during fair weather. Only when
precipitation or other significant weather is occuring in this county will these
forecasts be issued. Currently, there is no short term forecast in effect.


Fire Weather Forecast For HARRISON County, KY
Provided by the National Weather Service:

Issued at: Sun Nov 29 20:05:01 EST 2020


                      Tonight      Mon          Mon Night    Tue          

CLOUD COVER           Cloudy       Cloudy       Mcldy        Pcldy        
PRECIP TYPE           Showers      Showers      Snow Showers None         
CHANCE PRECIP (%)     100          100          70           0            
TEMP (24H TREND)      35 (+7)      38 (-17)     24           35           
RH % (24H TREND)      97 (+3)      81 (+23)     93           51           
20FTWND-VAL/AM(MPH)                NW 11 G19                 W  9         
20FTWND-RDG/PM(MPH)   Lgt/Var      NW 10 G20    NW 10 G20    W 10         
PRECIP AMOUNT         0.42         0.16         0.06         0.00         
MIXING HGT(FT-AGL/MSL)             1996                      3937         
TRANSPORT WND (MPH)                NW 24                     W 24         
VENT RATE (KT-FT)                  44965                     77192        
DISPERSION                         Fair                      Good         
DSI                   SLGT UNSTBL  STBL         SLGT UNSTBL  SLGT UNSTBL  
LAL                   1            1            1            1            
HAINES INDEX          2            2            3            2            
ADI EARLY             8 POOR       40 FAIR      20 GEN POOR  47 GEN GOOD  
ADI LATE              20 GEN POOR  45 GEN GOOD  18 GEN POOR  61 GOOD      
MAX LVORI EARLY       6            5            4            4            
MAX LVORI LATE        6            4            4            1            

REMARKS...ADI IS ATMOSPHERIC DISPERSION INDEX BY LAVDAS.        
LVORI IS LOW VISIBILITY OCCURRENCE RISK INDEX.

.WEDNESDAY...Clear. Lows in the lower 20s. Highs in the mid 40s.
West winds around 5 mph. 
.THURSDAY...Mostly cloudy. Lows in the upper 20s. Highs in the
mid 40s. South winds up to 5 mph. 
.FRIDAY...Mostly cloudy. Lows in the mid 30s. Highs in the mid
40s. Southwest winds up to 5 mph. 
.SATURDAY...Mostly cloudy. A 30 percent chance of rain showers
and snow showers. Lows around 30. Highs in the lower 40s. West
winds 5 to 10 mph. 
.SUNDAY...Partly cloudy. Lows in the upper 20s. Highs in the mid
40s. West winds 5 to 10 mph. 

SPC's Fire Weather Web Tool (Excellent!), SPC's Fire Weather Outlooks, NWS Fire Weather WEB, Fire Danger Class Map,
Keetch-Byram Drought Index, ROMAN Web, Haines Index ,
WFAS's 10-hr Dead Fuel Moist., WFAS's 100-hr Dead Fuel Moist., Probablity of Ignition, Visual blackness Map, Palmer Drought Index, HPC's Rainfall Forecast Maps


Hazardous Weather Outlook For HARRISON County, Kentucky
328 PM EST Sun Nov 29 2020 /228 PM CST Sun Nov 29 2020/

   WINTER WEATHER ADVISORY IN EFFECT FROM 4 PM EST /3 PM CST/ MONDAY
TO 7 AM EST /6 AM CST/ TUESDAY  

This hazardous weather outlook is for portions of south central
Indiana and Central Kentucky.

 DAY ONE  Tonight.

Rain is expected to move into the region this evening. The rain may
mix and change over to snow by sunrise Monday.

 DAYS TWO THROUGH SEVEN  Monday through Saturday.

Snow is expected on Monday, especially in the afternoon and evening
hours. With temperatures expected to dip below freezing after sunset,
some light snow accumulations are expected Monday night. For this
reason a Winter Weather Advisory has been issued. Negative travel
impacts are expected Monday night and Tuesday morning. 

 SPOTTER INFORMATION STATEMENT  

Spotters should report their snow amounts Monday night and Tuesday
morning to the NWS in Louisville.

Latest HARRISON County, Kentucky Watches, Warnings and Advisories.
Additional Drought Info.: UKAWC Drought Page, Kentucky Drought Watch


7-Day Forecast For HARRISON County, KY


WINTER WEATHER ADVISORY IN EFFECT FROM 4 PM MONDAY TO 7 AM EST TUESDAY

TONIGHT
Showers likely in the evening, then showers possibly mixed with snow showers after midnight. Little or no snow accumulation. Lows in the mid 30s. South winds up to 5 mph shifting to the northwest 5 to 15 mph after midnight. Chance of precipitation near 100 percent.

MONDAY
Snow showers possibly mixed with rain showers. Little or no snow accumulation. Highs in the upper 30s. Northwest winds 10 to 15 mph. Chance of precipitation near 100 percent.

MONDAY NIGHT
Snow showers likely. Snow accumulation around 1 inch. Lows in the mid 20s. West winds 10 to 15 mph. Chance of snow 70 percent.

TUESDAY
Partly cloudy. Highs in the mid 30s. West winds 10 to 15 mph.

TUESDAY NIGHT
Clear. Lows in the lower 20s. West winds 5 to 10 mph.

WEDNESDAY
Sunny. Highs in the lower 40s.

WEDNESDAY NIGHT
Partly cloudy. Lows in the mid 20s.

THURSDAY
Mostly cloudy with a 20 percent chance of rain showers. Highs in the mid 40s.

THURSDAY NIGHT
Mostly cloudy with a 20 percent chance of rain showers and snow showers. Lows in the mid 30s.

FRIDAY
Mostly cloudy with chance of rain showers possibly mixed with snow showers. Highs in the mid 40s. Chance of precipitation 30 percent.

FRIDAY NIGHT
Partly cloudy with a 30 percent chance of rain showers and snow showers. Lows in the upper 20s.

SATURDAY
Partly cloudy with chance of rain showers possibly mixed with snow showers. Highs in the lower 40s. Chance of precipitation 30 percent.

SATURDAY NIGHT
Partly cloudy with a 20 percent chance of rain showers and snow showers. Lows in the upper 20s.

SUNDAY
Partly cloudy. Highs in the lower 40s.

Ag Weather Center, Department of Biosystems & Agricultural Engineering, University of Kentucky